Back to catalog

STARLINK-3822

AliveCommunicationsVLEO
NORAD 52287·PAYLOAD·🇺🇸 United States

Launched Apr 21, 2022 from Cape Canaveral Space Force Station

Loading…

Next Passes (next 24 hours)

TLE

FreshSource: CelesTrak SupGP

Epoch: Sep 14, 2026, 13:30 UTC

1 52287C 22041AC  26257.56298611  .00020232  00000+0  65060-3 0  2578
2 52287  53.1597 329.1004 0001083  62.0239  57.5934 15.31691897    13

Track STARLINK-3822 in real time with AllMySat

Download on the App Store